IRNSS-1E

Last updated on Jan. 17, 2021, 6:29 a.m. UTC

1 41241U 16003A   21016.62625260 -.00000314  00000-0  00000-0 0  9990
2 41241  28.8480  92.7951 0021141 187.0143 173.6871  1.00273241 18259
UTC
Height (km)
Latitude
Longitude
Inclination
Orbital Period
UTC large
Height (km)
Speed (km/s)
/
Latitude / Longitude
Inclination (degrees)
Orbital Period (minutes)
Azimuth
Elevation
Range (km)
Doppler Factor
iOS Compass Heading
iOS Angle

Next 30 passes for location: Hong Kong

Rise time Rise Azimuth (degrees) Set time Set Azimuth (degrees) Duration Max altitude (degrees)

No matching passes for this satellites